NOAA NWS Hourly Roundups by Site

Regional Weather Roundup for Topeka, KS

To Select Another Site Choose from List

Select Site:  

702
ASUS43 KTOP 161108
RWRKS

WEATHER ROUNDUP FOR KANSAS
NATIONAL WEATHER SERVICE GOODLAND KS
500 AM CST MON DEC 16 2019

NOTE:  "FAIR" INDICATES FEW OR NO CLOUDS BELOW 12,000 FEET WITH NO
SIGNIFICANT WEATHER AND/OR OBSTRUCTIONS TO VISIBILITY.

KSZ001>006-013>018-027>032-041>047-161200-
NORTHWEST KANSAS

CITY           SKY/WX    TMP DP  RH WIND       PRES   REMARKS
GOODLAND       CLOUDY    23  20  88 N8        30.03S
HAYS           CLOUDY    21  18  88 N6        30.10F
HILL CITY      PTCLDY    21  19  92 NW3       30.10S
RUSSELL        CLOUDY    20  18  92 N6        30.08F
$$

KSZ061>065-074>080-084>089-161200-
SOUTHWEST KANSAS

CITY           SKY/WX    TMP DP  RH WIND       PRES   REMARKS
DODGE CITY     CLOUDY    23  20  88 N9        30.04S FOG
ELKHART        LGT SNOW  28  28 100 N7        30.01R
GARDEN CITY    CLOUDY    24  22  91 N9        30.04S
GREAT BEND     CLOUDY    22  20  92 N12       30.09S WCI  10
LIBERAL        LGT SNOW  25  23  93 N6        30.03S FOG
PRATT          CLOUDY    24  21  90 N9        30.06R
$$

KSZ066>073-081>083-090>101-161200-
SOUTHEAST KANSAS

CITY           SKY/WX    TMP DP  RH WIND       PRES   REMARKS
CHANUTE        CLOUDY    26  22  84 N9        30.06F FOG
COFFEYVILLE    CLOUDY    28  25  88 N13       30.03F WCI  17
HUTCHINSON     CLOUDY    23  19  85 N9        30.07S
NEWTON         FLURRIES  22  20  92 N14       30.07S WCI   9
PARSONS        CLOUDY    27  24  89 N10G22    30.03F WCI  17
WICHITA INTL   LGT SNOW  24  21  88 N10       30.05F VSB 1   WCI  14
WICHITA JABRA  LGT SNOW  23  21  92 N12       30.05F FOG     WCI  12
WICHITA MCCONL LGT SNOW  23  23 100 N5        30.04  FOG
WINFIELD       CLOUDY    25  22  88 N12       30.05S WCI  14
$$

KSZ007>012-019>026-033>040-048>060-102>105-161200-
NORTHEAST KANSAS

CITY           SKY/WX    TMP DP  RH WIND       PRES   REMARKS
CONCORDIA      CLOUDY    23  18  81 NW8       30.12S
EMPORIA        LGT SNOW  21  21 100 N9        30.09R VSB 1
LAWRENCE       CLOUDY    23  18  81 N6        30.13S
MANHATTAN      CLOUDY    24  19  81 N5        30.12F
MARYSVILLE     CLOUDY    21  19  93 N8        30.13F
OLATHE IND     CLOUDY    21  18  88 NE9       30.10F
OLATHE EXE     CLOUDY    21  20  96 NE12      30.10F WCI   9
SALINA         CLOUDY    23  18  81 N10       30.12S WCI  12
TOPEKA BILLARD MOCLDY    23  18  81 NE6       30.14F
TOPEKA FORBES  CLOUDY    22  18  85 N7        30.11F
$$



 

View Past Reports for Topeka, KS.

Products Courtesy of NOAA-NWS
NWS Information Parsing Script by Ken True at Saratoga Weather - Script by SE Lincoln Weather.